Regional Weather Roundup
Issued by NWS Burlington, VT

Current Version | Previous Version | Text Only | Print | Product List | Glossary Off
Versions: 1 2 3 4 5 6 7 8 9 10 11 12 13 14 15 16 17 18 19 20 21 22 23 24 25 26 27 28 29 30 31 32 33 34 35 36 37 38 39 40 41 42 43 44 45 46 47 48 49 50

000
ASUS41 KBTV 300930
RWRBTV
VERMONT REGIONAL WEATHER ROUNDUP
NATIONAL WEATHER SERVICE BURLINGTON VT
500 AM EDT SAT MAY 30 2015

NOTE: "FAIR" INDICATES FEW OR NO CLOUDS BELOW 12,000 FEET WITH NO
SIGNIFICANT WEATHER AND/OR OBSTRUCTIONS TO VISIBILITY.

* THESE REPORTS ARE NOT UNDER NWS QUALITY CONTROL AND/OR DO NOT
  REPORT WEATHER SUCH AS PRECIPITATION AND FOG.

VTZ001>019-301000-
_____VERMONT_____


CITY           SKY/WX    TMP DP  RH WIND       PRES   REMARKS
BURLINGTON     CLOUDY    71  56  58 S17G25    30.05S
MONTPELIER     SUNNY     62  56  80 S6        30.15F
MORRISVILLE    MOSUNNY   55  52  89 CALM      30.10S
ST. JOHNSBURY*   N/A     57  53  86 MISG      30.10F
LYNDONVILLE*     N/A     60  57  89 CALM      30.14S
MIDDLEBURY*    PTSUNNY   69  56  63 S5        30.11S
RUTLAND*       MOSUNNY   61  54  77 SE9       30.14S
SPRINGFIELD    SUNNY     54  53  97 CALM      30.16F
HIGHGATE*      PTSUNNY   70  57  64 S9G16     30.02S
NEWPORT*         N/A     60  56  87 S5        30.10R
BENNINGTON     SUNNY     59  55  87 CALM      30.16R
SUTTON*          N/A     57 N/A N/A MISG        N/A
GALLUP MILLS*    N/A     50 N/A N/A MISG        N/A
MT. MANSFIELD*   N/A     57 N/A N/A CALM        N/A

_____LAKE CHAMPLAIN_____


CITY           SKY/WX    TMP DP  RH WIND       PRES   REMARKS
BURTON ISLAND*   N/A     68  59  73 S16         N/A
COLCHESTER RF*   N/A     63  55  77 SW21        N/A
DIAMOND ISL*     N/A     66  59  77 S13         N/A

$$

NYZ007-026>031-035-052-083-301000-
_____NORTHERN NEW YORK_____


CITY           SKY/WX    TMP DP  RH WIND       PRES   REMARKS
PLATTSBURGH    MOSUNNY   58  56  93 CALM      30.03S
SARANAC LAKE   PTSUNNY   66  57  72 SW10      30.06F
MASSENA        CLOUDY    75  60  59 S15       29.96F
OGDENSBURG*    SUNNY     72  63  73 SW9G16    29.97S
POTSDAM*       SUNNY     75  64  69 SW15G24   29.98F
STARK FALLS*     N/A     70 N/A N/A S8          N/A
WATERTOWN      MOSUNNY   74  61  63 S12G17    29.99S
ALBANY         MOSUNNY   67  56  67 S9        30.14S
GLENS FALLS      N/A     61  57  87 SW6       30.12F

$$
NHZ002-005-011-301000-
_____NEW HAMPSHIRE_____


CITY           SKY/WX    TMP DP  RH WIND       PRES   REMARKS
LEBANON        SUNNY     56  54  93 CALM      30.14S FOG
KEENE            N/A     55  54  94 CALM      30.18F VSB 3/4
MT WASHINGTON  MOSUNNY   48  43  81 W39         N/A
PLYMOUTH       FOG       55  55 100 CALM      30.17S VSB 1/2
WHITEFIELD     MOSUNNY   51  48  89 CALM      30.13F

$$

_____REGIONAL QUEBEC LOCATIONS_____


CITY           SKY/WX    TMP DP  RH WIND       PRES   REMARKS
MONTREAL       CLOUDY    68  55  64 SE10      29.96S
QUEBEC CITY    MOSUNNY   54  50  87 CALM      29.99F
SHERBROOKE     MOSUNNY   54 N/A N/A E2        30.05F

_____REGIONAL ONTARIO LOCATIONS_____


CITY           SKY/WX    TMP DP  RH WIND       PRES   REMARKS
OTTAWA         PTSUNNY   68  61  77 S10G20    29.93F

______KEY______
VSB  - VISIBILITY IN MILES
WCI  - WIND CHILL INDEX
HX   - HEAT INDEX
$$
NNNN



USA.gov is the U.S. government's official web portal to all federal, state and local government web resources and services.